Lapse_Rate
-1.4 -1.2 -1.4 -1.5 -1.8 -2.0 -2.0 -2.2 -2.3 -2.4 -2.3 -2.4 -2.8 -3.2 -3.1 -3.0 -2.7 5.2 8.8 6.6 6.7 4.9 4.2 9.8 9.6 9.5 9.4 8.6 8.8 8.6 6.5 6.5 6.5 6.5 6.5 7.3 6.7 7.8 8.3 7.7 8.0 8.3 8.2 8.7 9.4
-1.0 -1.2 -1.3 -1.6 -1.8 -2.0 -2.2 -2.3 -2.5 -2.6 -2.3 -2.5 -2.8 -3.4 -3.4 -3.5 7.0 9.2 4.4 4.2 4.3 5.1 8.8 9.1 8.6 8.8 8.3 8.0 8.1 7.1 6.5 6.5 6.6 6.7 6.5 7.1 7.1 7.4 7.2 7.4 7.5 7.9 8.7 9.2 9.4
-1.1 -1.2 -1.4 -1.7 -1.8 -2.1 -2.3 -2.7 -2.6 -2.6 -2.5 -2.7 -2.8 -3.4 -3.5 -2.5 8.6 8.8 2.2 4.9 3.8 4.8 9.8 9.6 9.1 8.6 7.6 7.9 7.5 7.1 6.5 6.5 6.9 7.4 7.6 7.1 7.1 7.9 7.2 6.5 7.5 7.5 8.3 8.9 9.1
-1.2 -1.3 -1.5 -1.8 -1.9 -2.2 -2.7 -2.9 -2.8 -2.7 -2.8 -2.8 -2.9 -3.3 -3.7 5.9 6.5 9.0 1.0 3.8 3.5 7.7 9.7 9.1 8.6 7.6 7.0 6.5 7.7 6.6 7.1 7.2 7.3 7.6 7.4 6.8 7.5 7.1 7.4 7.3 8.3 8.6 8.8 8.9 8.8
-1.0 -1.3 -1.5 -1.8 -2.0 -2.5 -2.9 -3.2 -3.2 -3.1 -3.0 -3.1 -3.0 -3.2 3.5 8.3 8.2 6.3 2.4 1.8 6.8 8.6 9.1 8.6 8.0 7.6 6.5 6.9 7.2 6.5 6.8 7.4 7.6 7.6 7.5 7.6 7.0 6.9 7.3 8.2 8.5 8.7 8.7 8.7 8.9
-0.9 -1.1 -1.4 -1.9 -2.2 -2.6 -3.1 -3.4 -3.6 -3.6 -3.2 -3.2 -3.0 -3.6 6.7 7.1 9.9 8.5 9.0 8.3 9.6 9.6 9.1 9.0 8.3 8.3 7.4 7.0 6.7 7.0 7.2 7.1 7.4 7.3 7.4 6.7 6.9 7.3 7.5 8.3 8.2 8.4 8.5 8.7 8.8
-1.0 -1.3 -1.7 -2.1 -2.5 -3.0 -3.4 -3.9 -4.0 -3.9 -3.5 -3.2 -3.0 4.0 8.6 8.1 9.8 9.9 9.9 9.7 9.9 9.6 8.8 9.2 9.0 8.1 7.9 6.7 7.8 7.4 6.5 6.5 6.8 7.1 6.7 7.5 6.5 6.5 7.7 8.1 7.9 8.1 8.4 8.6 8.8
-0.8 -1.2 -1.9 -2.6 -3.0 -3.3 -3.6 -4.0 -4.2 -4.0 -3.4 -2.7 -2.7 6.9 7.8 9.2 9.7 9.6 9.9 9.7 10.1 9.9 9.4 9.5 9.3 8.4 7.7 7.9 7.2 6.5 6.5 6.6 6.5 6.8 7.0 7.0 6.5 6.6 7.8 7.9 7.6 7.9 8.3 8.5 8.7
-0.7 -1.0 -1.6 -2.5 -3.1 -3.5 -3.8 -4.0 -3.1 -2.6 -1.9 -1.6 5.1 8.3 7.5 5.5 8.9 9.8 9.9 9.2 9.4 9.5 9.5 9.3 9.0 7.8 7.7 6.5 6.5 6.5 6.5 6.5 6.5 7.0 6.5 6.5 6.5 6.8 8.0 7.6 7.5 7.8 8.1 8.3 8.6
-0.7 -1.1 -1.5 -2.3 -3.1 -3.6 -3.7 -2.6 0.1 -1.1 2.2 7.5 9.6 7.9 8.5 8.0 9.2 9.5 9.9 9.4 8.8 8.7 8.3 8.2 7.9 6.5 6.5 6.5 6.5 6.5 6.5 6.5 6.5 6.5 6.5 6.5 6.5 6.5 7.4 7.5 7.4 7.7 7.9 8.2 8.3
-0.6 -1.2 -1.6 -2.3 -2.9 -3.4 -0.2 9.0 7.9 8.2 8.8 7.7 7.8 7.7 8.1 9.1 9.4 9.0 9.6 8.9 8.7 8.0 6.5 7.4 6.5 6.5 6.5 6.5 6.5 6.5 6.5 6.5 6.5 6.5 6.5 6.5 6.5 6.5 7.0 7.4 7.2 7.5 7.8 8.0 8.3
-0.4 -1.0 -1.6 -2.3 -3.0 -1.7 2.1 8.7 8.0 6.5 7.3 8.7 8.6 8.4 8.7 9.0 7.7 8.6 9.4 7.7 7.4 6.5 6.8 6.5 6.5 6.5 6.5 6.5 6.5 6.5 6.5 6.5 6.5 6.5 6.5 6.5 6.5 6.5 6.6 6.9 7.3 7.4 7.6 7.9 8.2
-0.2 -0.8 -1.4 -2.0 -2.6 3.0 8.7 7.0 6.8 7.2 7.3 7.5 8.5 8.3 8.5 8.7 7.6 7.9 8.7 8.0 6.8 6.5 6.5 6.5 6.5 6.6 6.5 6.5 6.5 6.5 6.5 6.5 6.5 6.5 6.5 6.5 6.5 6.5 6.3 5.5 7.4 7.7 7.9 8.1 8.2
-0.1 -0.7 -1.3 -2.3 2.3 7.4 8.7 7.1 6.8 6.5 6.5 6.5 6.9 8.0 8.4 8.4 7.0 8.8 9.0 8.1 6.9 6.5 6.5 6.5 6.8 6.6 6.5 6.5 6.5 6.5 6.5 6.6 6.5 6.5 6.5 6.5 6.5 6.5 6.5 6.5 6.9 7.3 7.7 7.9 8.2
0.1 -0.4 -1.0 -2.0 4.4 8.7 7.3 6.4 6.0 7.5 6.5 6.5 6.8 9.1 8.5 7.4 7.5 7.7 9.1 8.1 6.5 6.5 6.5 6.5 6.5 6.5 6.5 6.5 6.5 6.5 6.5 6.5 6.5 6.5 6.5 6.5 6.5 6.5 6.5 6.5 6.5 6.9 7.3 7.8 8.2
0.5 -0.0 -0.8 5.5 6.0 7.9 6.4 6.1 7.1 6.5 6.5 6.5 7.0 6.6 6.6 7.3 7.1 7.8 7.7 8.3 8.0 6.5 6.5 6.5 7.3 6.6 6.5 6.5 6.5 6.5 6.6 6.5 6.5 6.5 6.5 6.5 6.5 6.6 6.5 6.5 6.5 7.0 7.4 7.7 8.1
0.6 0.2 0.3 4.9 8.6 5.6 5.5 8.4 6.5 6.5 6.5 6.5 6.5 6.5 6.5 6.5 6.5 6.5 6.5 6.5 6.5 6.5 6.5 6.5 6.5 6.6 6.9 6.5 6.5 6.5 6.5 6.5 6.5 6.5 6.5 6.5 6.5 6.5 6.5 6.5 6.5 6.7 7.2 7.7 8.1
1.0 0.4 3.6 6.0 6.7 5.4 7.1 6.7 6.5 6.5 6.5 6.5 6.5 6.5 6.5 6.5 6.5 6.5 6.5 6.5 6.5 6.5 6.5 6.5 6.5 6.6 6.5 6.5 6.5 6.5 6.5 6.5 6.5 6.5 6.6 6.5 6.5 6.5 6.5 7.1 7.3 7.4 7.6 7.9 8.0
1.5 7.6 6.9 7.1 5.1 6.0 8.1 6.5 6.5 6.5 6.5 6.5 6.5 6.5 6.5 6.5 6.5 6.5 6.5 6.5 6.5 6.5 6.5 6.5 6.5 6.5 6.5 6.5 6.5 6.5 6.5 6.5 6.5 6.5 6.5 6.5 6.5 6.5 6.5 6.5 6.9 7.1 7.4 7.6 7.9
6.8 9.2 9.2 7.5 5.7 8.2 6.8 6.5 6.5 6.6 6.6 6.5 6.5 6.5 6.5 6.5 6.5 6.5 6.5 6.5 6.5 6.5 6.8 6.5 6.5 6.5 6.5 6.7 6.7 6.5 6.5 6.5 6.5 6.5 6.5 6.5 6.5 6.5 6.5 6.5 6.5 6.7 7.1 7.6 8.0
6.8 8.2 8.4 7.0 7.5 8.2 6.5 6.5 6.5 7.3 7.2 6.5 6.5 6.5 6.5 6.5 6.5 6.5 6.5 6.5 6.5 6.5 6.8 6.5 6.5 6.5 6.5 6.5 6.5 6.5 6.5 6.5 6.5 6.5 6.5 6.4 6.5 6.5 6.5 6.5 6.5 6.7 7.3 7.7 7.9
8.6 6.6 9.2 8.6 7.2 7.2 6.5 6.5 5.8 6.8 7.5 6.6 6.6 6.5 6.5 6.5 6.5 6.5 6.5 6.5 7.1 6.9 6.5 6.5 6.5 6.5 6.5 6.5 6.5 6.5 6.5 6.5 6.6 6.5 6.5 6.5 6.5 6.5 6.5 6.6 6.9 7.0 7.5 7.9 8.1
8.2 8.1 9.4 9.2 6.4 6.5 6.7 6.5 6.9 6.5 6.5 6.5 6.5 6.5 6.5 6.5 6.5 6.5 6.5 7.0 7.2 6.5 6.5 6.5 6.5 6.5 6.5 6.5 6.5 6.5 6.5 6.5 6.5 6.5 6.5 6.5 6.5 6.5 6.7 6.7 7.1 7.1 7.5 7.9 8.0
8.2 6.5 7.7 8.6 8.0 6.6 6.5 6.5 6.5 7.3 6.8 7.0 6.5 6.7 6.5 6.5 6.5 6.5 6.5 6.6 7.1 7.0 3.5 6.0 6.5 6.5 6.5 6.5 6.5 6.5 6.5 6.5 6.5 6.5 6.5 6.5 6.5 6.5 6.5 6.5 6.9 7.2 7.5 7.8 8.1
8.5 6.7 7.7 6.5 6.7 6.6 6.5 6.4 6.5 6.5 7.0 7.3 6.5 6.5 6.5 6.5 6.5 6.5 6.5 6.5 6.8 4.2 6.5 6.5 6.5 6.5 6.5 6.5 6.5 6.5 6.5 6.5 6.5 6.5 6.5 6.5 6.6 6.5 6.5 6.5 6.8 7.3 7.6 7.7 7.9
7.5 7.2 7.9 7.1 7.4 6.6 6.5 6.5 6.5 6.5 6.5 6.5 6.5 6.5 6.5 6.5 6.5 6.5 6.5 6.5 6.5 6.6 6.5 6.5 6.5 6.5 6.5 6.5 6.5 6.5 6.5 6.5 6.5 6.5 6.5 6.5 6.5 6.5 7.0 7.3 7.0 7.2 7.4 7.5 7.8
9.2 9.0 8.0 6.5 6.6 6.5 6.5 6.5 6.5 6.6 6.9 7.2 6.7 6.5 6.5 6.6 7.2 7.3 7.4 7.2 6.9 6.5 6.5 6.5 6.5 6.5 6.5 6.5 6.5 6.5 6.5 6.5 6.5 6.5 6.5 6.5 6.5 6.5 6.5 6.6 6.9 7.2 7.4 7.6 7.9
Wind_Speed
21 20 21 21 21 20 20 20 20 20 19 18 18 17 16 16 11 7 13 5 5 18 9 10 10 8 9 6 5 8 12 3 9 9 6 11 8 4 5 8 6 6 3 15 21
20 21 21 22 22 21 20 21 20 20 19 19 19 17 16 16 10 14 8 14 22 20 12 13 12 8 11 6 4 9 11 4 8 6 8 4 10 10 7 8 7 9 8 20 21
21 22 22 23 23 23 22 21 21 20 19 19 19 17 17 13 10 16 13 14 20 21 15 9 4 9 11 5 4 4 7 7 6 8 6 6 9 10 11 13 12 13 15 19 18
22 23 24 24 25 25 24 23 21 20 19 18 18 18 18 8 5 10 8 15 19 16 13 10 11 12 12 10 5 10 4 4 10 4 4 4 4 8 11 9 6 18 19 18 19
22 23 25 26 26 26 26 25 22 20 19 17 17 16 8 9 7 8 13 11 14 14 14 12 12 12 12 6 4 9 3 1 1 3 2 0 6 10 12 12 4 18 18 18 17
22 24 25 26 27 28 27 26 24 21 19 16 14 12 9 13 5 10 15 13 14 15 14 10 10 4 9 8 8 4 6 1 3 3 4 8 6 9 10 11 11 14 17 17 17
24 25 26 27 28 29 29 28 25 22 18 14 10 5 10 5 3 7 10 15 16 14 14 10 4 10 5 8 4 9 12 12 13 4 4 9 10 12 11 14 14 14 15 16 17
24 26 28 28 29 30 29 28 26 20 13 9 5 9 7 3 5 7 11 14 13 10 11 5 6 11 8 5 7 12 16 12 9 7 4 7 8 15 14 15 15 15 14 15 17
22 24 27 29 31 32 31 28 22 10 6 4 6 7 8 4 10 9 10 14 12 10 9 3 10 12 10 13 15 16 10 3 10 11 5 7 11 10 21 14 15 13 15 15 16
23 25 27 29 31 33 33 21 7 7 7 7 6 5 7 9 12 10 11 5 14 11 11 11 9 12 12 14 13 4 6 11 12 5 4 11 14 11 11 13 13 16 15 16 17
23 26 28 30 31 34 17 5 5 6 9 6 2 4 1 4 4 11 13 12 12 14 16 17 14 16 19 16 15 16 12 15 15 13 6 11 17 15 19 16 14 15 15 16 17
21 24 28 31 33 32 12 4 5 5 8 15 11 9 5 3 10 15 15 14 15 17 18 16 17 18 17 17 6 15 15 17 15 12 8 14 19 16 15 17 14 14 17 18 18
20 22 26 31 34 11 6 7 7 4 7 7 11 14 12 10 11 18 18 20 18 18 18 17 14 19 16 12 12 15 16 15 16 6 10 15 19 16 8 22 10 15 14 17 19
19 22 24 36 8 5 1 8 6 2 5 10 8 8 10 8 9 14 19 20 20 19 19 16 17 13 11 13 14 16 12 11 13 13 11 2 8 20 12 13 33 15 16 17 19
17 20 22 19 8 3 5 8 2 3 4 3 9 5 8 14 5 17 14 19 19 20 13 17 16 14 14 15 12 15 12 11 15 15 14 16 9 15 12 11 8 14 11 11 17
16 17 22 4 4 4 6 7 3 3 7 7 7 10 13 19 11 11 12 14 15 18 18 17 12 13 16 14 13 8 14 14 14 12 13 16 14 13 9 6 8 8 1 8 14
17 18 13 9 2 5 7 5 5 5 3 9 9 11 15 16 18 13 18 18 13 15 16 16 19 13 11 11 10 11 11 10 12 11 11 15 5 10 15 9 6 6 3 5 10
19 22 4 9 4 6 5 7 6 8 19 3 3 10 14 13 17 17 16 17 21 19 12 16 17 19 13 18 14 14 14 10 13 12 13 2 9 1 3 4 3 1 2 4 8
23 6 6 4 8 5 7 9 7 10 5 7 8 13 15 11 4 17 18 17 19 21 17 12 18 2 12 16 16 16 9 10 14 15 10 14 22 18 15 6 4 5 4 4 5
6 6 8 9 8 6 9 15 12 4 3 7 16 12 15 17 12 10 14 11 18 15 18 15 12 13 10 8 11 11 9 9 9 4 15 13 14 13 6 4 7 6 6 6 5
6 5 8 9 6 7 10 15 18 6 8 8 12 10 14 10 14 14 7 7 6 12 13 16 12 13 10 13 16 9 13 12 10 10 11 12 8 11 4 4 3 4 7 8 9
6 8 7 9 8 9 13 17 7 11 12 8 7 8 10 11 9 14 11 1 0 6 12 16 9 15 15 15 11 15 13 17 11 16 10 11 14 10 2 2 3 2 8 9 9
5 7 5 8 8 11 12 15 10 14 14 10 9 8 6 9 8 7 8 7 1 9 3 7 9 11 16 10 7 11 16 14 13 14 17 14 13 8 1 6 5 6 10 9 9
4 2 5 8 11 13 17 15 15 11 12 8 11 5 8 10 7 7 8 6 1 4 5 3 10 12 13 16 11 13 19 16 15 11 13 17 20 19 11 12 11 9 9 11 11
4 4 8 6 12 14 13 12 17 11 12 12 11 13 12 11 12 11 9 8 7 5 4 4 11 13 14 18 17 17 15 17 19 18 18 17 19 16 14 13 8 8 11 13 13
3 4 4 5 15 16 12 17 17 16 12 14 15 14 13 11 11 9 12 4 8 5 5 3 8 9 13 14 17 21 21 19 18 19 21 21 21 17 16 13 6 7 11 14 14
6 5 5 6 9 13 14 15 15 14 4 10 12 9 10 3 6 5 6 4 5 4 6 5 5 8 14 14 17 19 19 20 20 21 18 19 18 16 18 14 8 10 11 15 15
Wind_Direction
353 348 347 347 347 346 341 339 335 332 328 325 327 328 329 326 308 218 225 133 150 163 217 189 215 219 237 256 258 275 269 101 43 57 121 124 180 163 79 121 180 162 357 130 143
349 347 345 343 342 340 337 333 331 328 324 323 321 321 325 325 257 231 158 124 148 169 208 194 202 209 243 249 239 280 287 33 37 18 2 154 222 148 195 168 161 135 114 132 152
348 344 342 341 338 337 333 330 326 323 320 320 316 318 320 314 245 224 144 149 171 184 228 221 278 235 258 243 222 241 313 50 102 22 321 167 217 151 225 180 178 166 147 149 163
346 343 341 339 336 333 329 326 324 320 316 314 313 316 317 248 228 95 139 157 184 211 234 208 222 226 247 232 199 266 124 323 48 14 307 264 204 179 231 67 52 140 152 160 168
344 340 337 335 333 330 326 322 318 315 310 308 308 319 293 220 260 109 144 157 189 216 221 212 228 237 252 243 220 243 133 86 103 226 277 301 205 217 204 112 160 123 154 166 172
341 337 334 333 330 327 322 318 314 308 302 299 301 314 242 253 65 136 172 173 208 215 224 224 240 320 304 262 268 31 291 358 219 122 175 234 169 208 188 127 138 153 164 169 174
339 335 331 331 328 324 320 316 310 302 295 288 286 262 263 252 337 164 190 198 211 212 230 227 312 257 285 247 248 272 260 218 208 183 212 255 201 214 149 159 161 170 170 168 174
338 335 330 329 327 323 318 312 305 298 284 273 242 234 265 65 292 206 192 204 214 226 264 336 259 271 271 328 246 249 241 269 66 204 184 244 298 195 156 167 169 177 173 171 175
336 333 329 328 326 322 316 310 299 282 247 179 196 233 245 129 209 199 199 191 194 215 226 292 250 249 212 245 245 224 263 118 217 216 275 219 282 154 219 174 170 185 178 177 174
334 333 330 328 327 322 316 300 284 266 225 206 256 226 213 220 176 194 193 226 188 201 212 227 230 234 235 243 254 26 254 274 281 258 207 270 245 208 190 187 206 176 182 181 178
333 333 330 328 327 321 325 248 219 195 215 235 92 243 154 147 164 212 188 199 209 194 214 207 223 232 242 240 273 293 281 303 296 298 254 275 261 243 163 229 196 181 184 189 184
332 332 330 328 326 316 288 4 32 345 290 227 243 273 255 298 208 206 173 195 205 208 213 223 226 244 251 267 262 267 280 275 289 295 328 284 270 249 234 198 196 202 189 187 184
331 332 330 327 321 303 37 33 326 294 259 181 223 229 208 210 229 197 189 202 202 219 226 233 223 221 247 263 253 263 268 282 290 264 256 257 275 276 350 350 188 201 209 186 189
329 331 333 329 302 334 86 352 353 294 266 175 202 220 195 221 239 240 191 211 231 226 227 240 240 253 250 242 257 260 263 284 258 276 270 133 246 242 115 128 279 207 205 200 190
325 329 329 328 317 270 22 343 350 246 282 157 152 81 188 198 107 199 195 218 229 221 240 232 236 243 237 237 245 262 283 298 283 278 290 275 273 306 184 217 275 170 199 208 195
318 323 330 203 238 322 331 308 244 230 243 191 170 192 191 208 209 148 184 229 230 242 224 248 249 233 242 246 249 296 274 259 257 260 260 270 272 278 293 209 178 245 133 199 211
313 310 310 298 355 332 308 229 223 180 181 197 193 187 203 194 210 197 199 199 205 211 221 221 231 222 243 247 233 245 244 254 247 239 252 259 264 275 301 18 20 330 259 233 253
308 306 248 248 270 305 243 217 209 246 227 25 231 192 206 200 210 206 204 213 214 212 231 224 223 220 184 236 242 205 237 236 253 266 279 132 249 231 70 88 76 210 247 238 238
304 252 238 197 216 220 227 218 208 244 289 204 191 219 207 199 246 208 221 220 215 219 233 249 236 112 199 219 233 245 238 271 288 285 279 282 297 285 248 172 174 207 187 182 197
296 255 231 161 184 214 224 236 224 246 289 243 233 211 221 197 195 197 202 226 239 209 230 249 258 229 193 225 250 262 257 219 239 258 266 268 279 272 212 240 147 183 170 148 168
259 226 120 171 193 210 216 224 235 213 244 239 241 246 248 235 190 211 233 125 297 234 220 235 245 240 173 213 225 197 235 236 261 234 247 269 271 26 48 46 39 165 149 155 160
262 220 152 173 199 209 219 213 248 229 220 237 280 254 243 224 222 243 225 209 232 232 225 231 234 235 220 238 241 268 220 224 228 236 255 263 267 302 191 251 302 205 163 156 161
245 205 159 207 212 214 215 213 223 225 219 211 226 232 209 227 235 246 209 82 74 210 277 216 224 241 246 186 206 240 246 253 250 244 241 249 256 255 285 213 203 238 164 167 167
257 185 154 207 249 230 207 214 208 226 247 228 237 197 208 226 222 191 214 157 247 49 330 338 233 233 235 245 215 215 246 236 231 240 248 249 264 272 228 229 229 193 187 184 179
235 233 193 194 221 211 226 212 208 187 228 211 213 221 217 229 224 220 226 150 204 148 205 252 241 246 258 272 280 271 214 229 226 240 244 252 258 260 264 268 251 205 190 190 189
209 218 180 219 204 211 205 217 211 195 188 208 231 213 227 236 228 252 235 195 249 158 233 192 259 263 261 260 261 263 267 265 251 230 244 252 260 266 277 285 270 265 202 202 196
214 295 289 165 205 200 201 214 212 187 215 285 211 175 211 187 43 30 334 319 312 283 263 251 253 243 255 260 262 254 249 256 261 257 244 252 266 269 270 257 247 258 216 206 198